This demonstration page uses our WeatherBlox Daily Observations layout. Learn more.

Hourly Observations for January 10, 2019

Temp ( °F °C ) Dew Point ( °F °C ) Humidity (%) Winds ( mph kmh ) Pressure ( in mb ) Visibility ( mi km ) Precip ( " mm )
12:15 am 00:15 Clear 27 -2.6 21 -6.1 77 77 ESE 8 13 30.36 1028 10 16.09344 0 0
12:35 am 00:35 Clear 28 -2.5 21 -6.1 77 77 SE 8 13 30.33 1027 10 16.09344 0 0
12:55 am 00:55 Clear 29 -1.7 21 -6.1 72 72 SE 9 15 30.33 1027 10 16.09344 0 0
1:15 am 01:15 Clear 29 -1.5 21 -6.1 71 71 SSE 9 15 30.33 1027 10 16.09344 0 0
1:35 am 01:35 Clear 29 -1.5 21 -6.1 71 71 SE 10 17 30.33 1027 10 16.09344 0 0
1:55 am 01:55 Clear 29 -1.5 21 -6.1 71 71 SE 8 13 30.33 1027 10 16.09344 0 0
2:15 am 02:15 Clear 29 -1.5 21 -6.1 71 71 SSE 10 17 30.33 1027 10 16.09344 0 0
2:35 am 02:35 Clear 29 -1.6 21 -6 72 72 SE 7 11 30.33 1027 10 16.09344 0 0
2:55 am 02:55 Clear 29 -1.7 21 -6 73 73 SSE 7 11 30.3 1026 10 16.09344 0 0
3:15 am 03:15 Clear 29 -1.7 21 -6 73 73 SE 7 11 30.3 1026 10 16.09344 0 0
3:35 am 03:35 Clear 29 -1.7 21 -6 73 73 SSE 7 11 30.3 1026 10 16.09344 0 0
3:55 am 03:55 Clear 28 -2 21 -6 74 74 SSE 8 13 30.3 1026 10 16.09344 0 0
4:15 am 04:15 Clear 28 -2.3 21 -6 76 76 SSE 7 11 30.3 1026 10 16.09344 0 0
4:35 am 04:35 Clear 28 -2.4 21 -6 77 77 SSE 7 11 30.27 1025 10 16.09344 0 0
4:55 am 04:55 Clear 28 -2.5 21 -6 77 77 SE 7 11 30.27 1025 10 16.09344 0 0
5:15 am 05:15 Clear 28 -2.5 21 -6 77 77 SE 6 9 30.27 1025 10 16.09344 0 0
5:35 am 05:35 Clear 27 -2.6 21 -6 78 78 SE 7 11 30.27 1025 10 16.09344 0 0
5:55 am 05:55 Clear 27 -2.6 21 -6 78 78 SE 6 9 30.27 1025 10 16.09344 0 0
6:15 am 06:15 Clear 27 -3 21 -6.1 79 79 SE 3 6 30.27 1025 10 16.09344 0 0
6:35 am 06:35 Clear 27 -3 21 -6.1 79 79 SE 7 11 30.24 1024 10 16.09344 0 0
6:55 am 06:55 Clear 27 -3 21 -6 80 80 SE 6 9 30.24 1024 10 16.09344 0 0
7:15 am 07:15 Clear 26 -3.1 21 -6 81 81 SSE 3 6 30.24 1024 10 16.09344 0 0
7:35 am 07:35 Clear 26 -3.6 21 -6.1 83 83 S 3 6 30.24 1024 10 16.09344 0 0
7:55 am 07:55 Clear 25 -3.8 21 -6 85 85 Calm 30.24 1024 10 16.09344 0 0
8:15 am 08:15 Sunny 25 -3.8 21 -6 85 85 Calm 30.24 1024 10 16.09344 0 0
8:35 am 08:35 Sunny 26 -3.2 22 -5.8 82 82 Calm 30.24 1024 10 16.09344 0 0
8:55 am 08:55 Sunny 26 -3.2 22 -5.8 82 82 Calm 30.24 1024 10 16.09344 0 0
9:15 am 09:15 Sunny 26 -3.2 22 -5.6 84 84 SE 5 7 30.24 1024 10 16.09344 0 0
9:35 am 09:35 Sunny 28 -2.3 23 -5.2 81 81 SE 6 9 30.24 1024 10 16.09344 0 0
9:55 am 09:55 Sunny 30 -0.9 24 -4.4 77 77 SSE 8 13 30.21 1023 10 16.09344 0 0
10:15 am 10:15 Sunny 32 0 25 -4 75 75 S 8 13 30.21 1023 10 16.09344 0 0
10:35 am 10:35 Sunny 34 0.9 26 -3.6 72 72 S 9 15 30.21 1023 10 16.09344 0 0
10:55 am 10:55 Sunny 35 1.7 26 -3.3 70 70 S 9 15 30.18 1022 10 16.09344 0 0
11:15 am 11:15 Sunny 36 2 26 -3.3 68 68 SSW 9 15 30.18 1022 10 16.09344 0 0
11:35 am 11:35 Sunny 36 2.4 27 -3 68 68 SSW 9 15 30.18 1022 10 16.09344 0 0
11:55 am 11:55 Sunny 37 2.7 27 -3 66 66 SW 8 13 30.15 1021 10 16.09344 0 0
12:15 pm 12:15 Sunny 37 3 27 -3 65 65 SSW 7 11 30.15 1021 10 16.09344 0 0
12:35 pm 12:35 Sunny 38 3.4 27 -2.8 64 64 SSW 6 9 30.12 1020 10 16.09344 0 0
12:55 pm 12:55 Sunny 39 3.7 27 -2.7 63 63 SSW 6 9 30.12 1020 10 16.09344 0 0
1:15 pm 13:15 Sunny 40 4.2 27 -2.6 62 62 SW 3 6 30.09 1019 10 16.09344 0 0
1:35 pm 13:35 Sunny 40 4.3 28 -2.4 62 62 SSW 6 9 30.09 1019 10 16.09344 0 0
1:55 pm 13:55 Sunny 40 4.3 28 -2.5 62 62 SW 6 9 30.09 1019 10 16.09344 0 0
2:15 pm 14:15 Sunny 41 4.8 28 -2.4 60 60 S 5 7 30.09 1019 10 16.09344 0 0
2:35 pm 14:35 Sunny 41 4.9 28 -2.2 60 60 S 5 7 30.09 1019 10 16.09344 0 0
2:55 pm 14:55 Sunny 40 4.7 28 -2 62 62 SSE 6 9 30.09 1019 10 16.09344 0 0
3:15 pm 15:15 Sunny 41 5 29 -1.9 61 61 S 7 11 30.09 1019 10 16.09344 0 0
3:35 pm 15:35 Sunny 41 4.8 29 -1.7 63 63 SSE 9 15 30.09 1019 10 16.09344 0 0
3:55 pm 15:55 Sunny 39 4.1 29 -1.6 67 67 SSE 8 13 30.09 1019 10 16.09344 0 0
4:15 pm 16:15 Sunny 39 3.9 29 -1.6 68 68 SSE 6 9 30.12 1020 10 16.09344 0 0
4:35 pm 16:35 Sunny 38 3.6 29 -1.5 70 70 Calm 30.12 1020 10 16.09344 0 0
4:55 pm 16:55 Sunny 38 3.2 29 -1.5 72 72 SSE 5 7 30.12 1020 10 16.09344 0 0
5:15 pm 17:15 Sunny 37 2.6 29 -1.5 75 75 SSE 7 11 30.12 1020 10 16.09344 0 0
5:35 pm 17:35 Clear 35 1.8 29 -1.9 77 77 SSE 5 7 30.12 1020 10 16.09344 0 0
5:55 pm 17:55 Clear 35 1.6 28 -2.1 77 77 SSE 5 7 30.12 1020 10 16.09344 0 0
6:15 pm 18:15 Clear 34 1.2 28 -2.2 78 78 S 3 6 30.12 1020 10 16.09344 0 0
6:35 pm 18:35 Clear 33 0.8 28 -2.1 81 81 SSE 3 6 30.15 1021 10 16.09344 0 0
6:55 pm 18:55 Clear 33 0.4 28 -2.3 82 82 Calm 30.15 1021 10 16.09344 0 0
7:15 pm 19:15 Clear 33 0.7 28 -2.1 82 82 Calm 30.15 1021 10 16.09344 0 0
7:35 pm 19:35 Clear 31 -0.3 28 -2.2 87 87 Calm 30.15 1021 10 16.09344 0 0
7:55 pm 19:55 Clear 31 -0.3 28 -2.2 87 87 Calm 30.15 1021 10 16.09344 0 0
8:15 pm 20:15 Clear 31 -0.5 28 -2.2 88 88 Calm 30.15 1021 10 16.09344 0 0
8:35 pm 20:35 Clear 31 -0.8 28 -2.5 88 88 Calm 30.15 1021 10 16.09344 0 0
8:55 pm 20:55 Clear 31 -0.6 28 -2.5 87 87 Calm 30.15 1021 10 16.09344 0 0
9:15 pm 21:15 Clear 30 -1.1 27 -2.6 90 90 Calm 30.15 1021 10 16.09344 0 0
9:35 pm 21:35 Clear 30 -1.1 27 -2.7 89 89 Calm 30.15 1021 10 16.09344 0 0
9:55 pm 21:55 Clear 29 -1.5 27 -2.8 91 91 Calm 30.15 1021 10 16.09344 0 0
10:15 pm 22:15 Clear 29 -1.5 27 -2.8 91 91 N 3 6 30.15 1021 10 16.09344 0 0
10:35 pm 22:35 Clear 29 -1.7 27 -3 91 91 N 5 7 30.15 1021 10 16.09344 0 0
10:55 pm 22:55 Clear 29 -1.5 27 -2.7 92 92 N 5 7 30.15 1021 10 16.09344 0 0
11:15 pm 23:15 Clear 29 -1.6 27 -3 90 90 Calm 30.15 1021 10 16.09344 0 0
11:35 pm 23:35 Clear 29 -1.7 27 -3 91 91 Calm 30.15 1021 10 16.09344 0 0
11:55 pm 23:55 Clear 28 -2.5 26 -3.6 92 92 W 3 6 30.18 1022 10 16.09344 0 0

Powered by AerisWeather